EHI
0 0 0 0 0 0 0 0 0 0 0 0 0 0 0 0 0 0 0 0 0 0 0 1 2 2 3 4 4 4 3 3 3 2 1 0 0 0 1 1 1 0 1 2 2 1 0 1 1
0 0 0 0 0 0 0 0 0 0 0 0 0 0 0 0 0 0 0 0 0 0 0 0 1 2 3 4 4 4 3 3 3 2 1 0 0 0 0 0 0 0 0 1 1 0 1 2 2
0 0 0 0 0 0 0 0 0 0 0 0 0 0 0 0 0 0 0 0 0 0 0 0 1 2 4 4 5 4 3 2 1 1 0 1 1 1 0 0 0 0 0 0 0 0 1 2 3
0 0 0 0 0 0 0 0 0 0 0 0 0 0 0 0 0 0 0 0 0 0 0 0 1 3 5 5 5 4 3 1 0 0 1 2 2 2 1 0 0 0 0 0 0 0 1 3 3
0 0 0 0 0 0 0 0 0 0 0 0 0 0 0 0 0 0 0 0 0 0 0 0 1 3 5 5 4 4 2 1 1 0 1 2 3 2 1 0 0 1 1 1 1 1 2 3 3
0 0 1 1 1 0 0 0 0 0 0 0 0 0 0 0 0 0 0 0 0 0 0 1 2 3 4 4 3 2 2 2 2 1 2 3 3 1 0 0 0 1 2 3 3 3 3 3 3
0 0 1 2 1 0 0 0 0 0 0 0 0 0 0 0 0 0 0 1 1 1 1 1 2 3 2 3 2 1 1 1 2 3 4 4 2 1 0 0 0 0 1 4 5 4 3 3 3
0 0 1 1 1 0 0 0 0 0 0 0 0 0 0 1 1 0 1 2 2 2 2 1 2 2 2 2 1 0 0 0 1 3 3 2 1 0 0 0 0 0 1 3 5 4 3 3 3
0 0 0 0 0 0 0 0 0 0 0 0 0 0 1 2 2 1 2 3 3 3 3 2 2 3 2 1 0 0 0 0 0 1 1 0 0 0 0 0 0 0 1 2 3 3 3 3 3
0 1 1 1 1 0 0 0 0 0 0 0 0 0 1 3 3 2 2 2 2 2 2 1 2 3 3 2 0 0 0 0 0 0 0 0 0 0 0 0 0 0 0 2 3 3 3 2 1
1 2 2 2 1 0 0 0 0 0 0 0 0 1 2 3 3 2 1 1 1 1 1 1 1 2 2 1 0 0 0 0 0 0 0 0 0 0 0 0 0 0 0 1 2 2 1 1 0
2 2 2 1 0 0 0 0 1 0 0 0 0 1 2 3 3 3 1 0 0 0 0 0 1 1 1 0 0 0 0 0 0 0 0 0 0 0 0 0 0 0 0 0 1 1 0 0 0
1 1 1 0 0 0 0 1 1 0 0 0 0 0 1 2 2 2 1 0 0 0 0 0 0 0 0 0 0 0 0 0 0 0 0 0 0 0 0 0 0 0 0 0 0 0 0 0 0
0 0 0 0 0 0 0 1 2 1 1 1 1 0 0 1 1 1 1 0 0 0 1 1 1 0 0 0 0 0 0 0 0 0 0 0 0 0 0 0 0 0 0 0 0 0 0 0 0
0 0 0 0 0 0 0 1 2 2 3 2 1 1 0 0 0 0 0 0 0 1 2 2 1 0 0 0 0 0 0 0 0 0 0 0 0 0 1 1 0 0 0 0 0 0 0 0 0
0 0 0 0 0 0 0 0 1 2 3 3 3 2 1 0 0 0 0 0 0 1 2 3 2 1 0 0 0 0 0 0 0 0 0 0 1 1 1 1 0 0 0 0 0 0 0 0 0
0 0 0 0 0 0 0 0 0 1 3 3 3 2 1 0 0 0 0 0 0 1 2 3 2 1 0 0 0 0 0 0 0 0 0 0 1 1 1 1 0 0 0 0 0 0 0 0 0
0 0 0 0 0 0 0 0 0 1 2 3 3 3 1 1 0 0 0 0 0 1 2 3 2 1 0 0 0 0 0 0 0 0 0 0 1 1 0 0 0 0 0 0 0 0 0 0 0
0 0 0 0 0 0 0 0 0 0 1 3 4 3 2 1 0 0 1 1 1 1 3 3 2 1 0 0 0 0 0 0 0 0 0 0 0 0 0 0 0 0 0 0 0 0 0 0 0
0 0 0 0 0 0 0 0 0 0 0 2 3 3 3 2 1 2 4 4 3 3 4 4 3 1 0 0 0 0 0 0 0 0 0 0 0 0 0 0 0 0 0 0 0 0 0 0 0
0 0 0 0 0 0 0 0 0 0 0 0 2 3 3 2 2 5 7 7 6 6 6 7 6 3 1 1 1 1 0 0 0 0 0 0 0 0 0 0 0 0 0 0 0 0 0 0 1
0 0 0 0 0 0 0 0 0 0 0 0 1 2 3 4 5 7 10 10 9 9 10 10 9 6 2 2 2 2 1 0 0 0 0 0 0 0 0 0 0 0 0 0 0 0 0 1 2
0 0 0 0 0 0 0 0 0 0 0 0 0 1 2 4 5 7 10 10 9 10 13 14 13 9 5 3 3 3 1 0 0 0 0 0 0 0 0 0 0 0 0 0 0 0 1 2 3
0 0 0 0 0 0 0 0 0 0 0 0 0 0 1 3 5 7 8 8 8 10 15 17 16 13 9 5 3 3 2 1 0 0 0 0 0 0 0 0 0 0 0 0 0 1 1 3 3
0 0 0 0 0 0 0 0 0 0 0 0 0 0 0 2 6 8 7 6 7 11 16 18 18 16 12 8 5 3 2 1 0 0 0 0 0 0 0 0 0 0 0 0 1 3 3 3 2
0 0 0 0 0 0 0 0 0 0 0 0 0 0 0 2 6 8 8 7 8 11 15 17 16 15 14 12 7 4 3 1 1 1 0 0 0 0 0 0 0 0 0 2 3 4 3 2 1
0 0 0 0 0 0 0 0 0 0 1 1 1 0 0 2 5 8 9 8 8 10 13 15 14 14 14 13 8 4 3 2 2 1 0 0 0 0 0 1 1 1 2 4 4 3 2 0 0
0 0 0 0 0 0 0 0 0 0 1 2 2 1 0 2 4 7 8 8 8 9 12 13 12 13 13 12 9 5 3 3 2 2 1 0 0 1 1 2 3 3 3 3 3 1 0 0 0
0 0 0 0 0 0 0 0 0 0 0 2 3 3 1 2 5 5 6 6 7 10 12 12 11 12 12 11 10 7 5 5 4 3 3 2 1 2 3 3 4 4 3 1 1 0 0 0 0
0 0 0 0 0 0 0 0 0 0 1 2 3 4 2 2 5 5 5 6 7 10 13 12 11 11 12 11 9 8 7 8 7 5 5 4 3 3 3 3 4 4 2 1 0 0 0 0 0
Wind_Speed
7 5 2 1 4 5 2 2 1 2 2 2 4 4 5 3 1 1 0 2 3 2 1 4 7 7 8 8 9 9 10 10 10 10 12 12 13 14 14 14 15 16 16 17 17 17 17 17 17
5 4 1 2 5 3 3 2 2 2 3 3 4 4 5 4 2 3 1 2 3 3 2 4 8 8 8 8 9 9 9 10 10 10 11 12 13 14 14 15 15 15 16 17 17 17 17 17 16
5 3 2 3 3 2 1 0 3 4 3 2 3 4 4 2 2 1 1 3 4 3 2 4 9 8 8 8 8 8 9 9 10 10 11 12 13 13 14 15 15 15 16 17 17 17 16 16 15
2 1 3 4 2 2 2 2 4 4 3 5 4 4 3 3 1 1 3 4 5 4 3 4 8 8 8 8 8 8 9 9 9 10 11 12 13 13 14 14 15 15 16 16 16 15 15 15 14
1 3 5 3 2 2 1 3 4 3 2 3 4 4 3 4 4 5 5 5 6 4 3 4 8 7 8 8 8 8 9 9 9 10 11 12 12 13 13 13 14 14 15 15 15 14 14 13 12
3 3 4 2 3 2 1 3 4 4 3 3 4 4 2 2 4 5 5 5 5 4 3 3 7 7 7 7 8 8 9 9 9 11 11 11 12 12 12 12 13 13 14 14 13 13 12 12 11
3 3 2 0 1 1 1 3 4 4 4 3 3 4 2 1 2 4 5 5 4 4 3 2 2 4 6 7 7 7 8 9 10 10 11 11 11 11 10 10 11 12 12 12 12 12 11 10 9
3 3 2 0 1 1 2 3 3 4 3 4 4 5 3 3 4 5 5 5 4 3 3 3 2 3 2 3 5 6 7 8 9 10 10 10 10 9 9 9 9 11 11 11 11 10 10 9 8
2 4 1 3 3 2 3 4 2 4 5 3 3 3 4 8 7 6 5 3 2 2 2 2 2 2 2 2 3 4 5 6 7 7 9 7 4 4 5 7 9 9 9 9 9 8 8 8 6
3 2 4 4 4 4 4 5 5 4 4 3 5 5 8 9 7 6 5 4 3 2 1 1 1 1 1 1 2 2 3 3 4 4 4 4 3 3 4 6 7 8 8 7 7 7 6 5 3
3 4 3 2 3 5 6 5 4 7 3 4 7 9 10 9 6 6 5 4 3 2 2 2 2 1 1 1 1 1 2 2 3 3 3 3 3 3 3 2 3 3 4 3 4 4 2 2 2
2 3 2 1 2 4 6 6 5 4 4 6 10 12 10 9 8 7 6 4 3 2 2 2 2 2 1 1 1 1 1 1 1 2 2 3 2 2 2 2 2 2 2 2 2 2 2 2 2
2 2 1 1 3 4 5 4 5 2 4 8 10 10 10 9 7 5 5 4 4 4 3 3 3 2 2 1 1 1 1 1 1 1 1 2 2 2 2 1 1 1 1 2 2 2 2 2 2
1 1 2 3 4 3 5 3 4 3 7 9 9 8 8 8 7 5 5 5 5 5 4 3 3 3 3 2 2 1 1 1 1 1 1 2 2 2 2 1 1 1 1 1 2 2 2 1 2
1 4 5 3 2 2 5 2 2 6 9 9 8 7 6 6 6 6 7 6 6 5 5 4 4 3 3 3 3 2 1 2 1 1 1 2 2 2 2 1 1 1 1 2 2 2 2 2 2
4 4 2 2 1 2 5 3 4 8 10 8 7 7 6 6 6 6 6 5 5 5 5 5 5 4 3 3 2 2 2 2 1 1 1 2 2 3 2 1 1 1 2 2 2 2 2 1 1
4 1 1 2 2 3 4 4 4 8 9 9 8 7 7 6 6 5 6 6 6 5 5 5 4 5 4 3 2 2 2 2 1 1 1 2 3 3 2 2 2 2 2 2 2 2 2 1 1
3 2 2 3 2 3 3 4 4 9 9 8 8 7 7 8 9 6 6 6 5 4 4 5 4 4 4 3 2 1 1 1 1 1 2 3 2 3 3 2 2 2 2 2 2 2 2 1 1
4 3 3 4 2 3 4 5 5 8 8 8 8 8 9 9 7 5 6 6 5 5 5 5 5 4 4 2 2 2 1 1 0 1 2 2 3 3 3 2 2 2 2 2 2 2 2 1 1
3 2 3 3 1 3 3 4 3 8 11 11 11 11 10 7 5 6 6 6 6 6 6 5 5 5 4 3 2 2 2 1 1 1 0 1 3 3 3 3 2 2 2 2 3 2 2 1 1
3 5 5 2 2 2 1 4 2 3 5 6 8 9 9 11 10 9 8 8 7 7 8 7 6 5 4 4 3 2 2 1 1 0 0 1 2 2 2 3 3 3 3 3 3 3 3 2 1
4 5 5 3 3 2 1 3 6 3 4 7 8 9 10 10 10 9 9 8 9 9 7 6 6 5 5 5 4 4 3 2 2 1 1 1 1 1 2 3 3 3 3 3 3 3 3 3 2
5 2 3 3 3 1 1 1 8 1 5 9 10 10 10 10 11 11 11 11 9 8 7 6 6 5 5 5 5 5 3 2 1 1 1 0 0 1 1 2 3 3 3 3 3 3 3 3 3
4 7 7 6 5 1 3 3 7 4 7 7 9 10 9 9 10 10 9 8 7 7 7 7 6 6 5 5 5 5 5 4 3 2 1 1 0 0 1 2 2 3 2 3 3 3 4 3 3
5 7 4 4 3 5 2 3 10 7 6 7 9 10 9 8 9 9 9 10 9 9 9 8 8 7 6 6 5 5 5 5 5 3 3 2 1 1 1 1 1 1 2 3 3 3 3 4 3
4 8 8 6 5 4 1 5 9 5 4 4 5 6 6 8 8 9 10 10 10 10 9 9 8 7 6 6 6 5 5 4 3 3 3 3 2 2 2 2 2 2 2 2 2 2 2 2 3
5 3 6 7 2 1 5 7 9 3 3 2 1 3 5 8 8 9 9 9 9 10 10 10 10 8 7 7 5 4 5 4 4 3 3 3 2 2 2 2 2 2 2 2 3 2 2 2 2
5 8 6 6 5 3 5 5 5 6 4 2 2 3 5 5 6 6 7 8 8 8 8 8 8 8 7 7 6 6 5 5 4 3 4 3 3 3 3 3 3 2 2 2 2 2 2 2 2
3 4 5 5 5 6 3 7 6 6 5 4 5 4 4 5 6 6 6 6 7 7 8 8 7 7 6 6 6 5 4 4 4 4 4 4 3 3 3 3 3 3 2 2 2 2 2 2 1
4 6 7 6 4 4 4 8 4 4 4 3 3 3 3 4 5 5 5 5 6 7 7 8 8 7 7 6 5 5 4 4 4 4 4 3 3 3 3 3 3 3 3 3 3 3 2 2 2
Wind_Direction
150 142 140 102 53 45 13 337 65 68 50 39 61 72 78 58 77 143 327 112 108 97 90 109 103 97 96 95 94 93 95 96 96 96 97 98 102 107 111 116 122 124 126 126 125 126 125 125 125
144 154 151 56 71 52 330 332 53 72 125 122 69 62 63 55 50 97 98 131 116 115 99 110 109 102 99 97 95 93 95 99 99 98 101 102 104 107 111 114 118 122 123 125 125 125 126 125 126
162 185 80 63 79 153 224 163 114 94 95 75 68 56 64 63 71 134 191 144 117 114 102 116 112 105 102 98 93 93 96 98 100 101 103 105 107 109 112 114 116 118 120 122 125 126 127 127 128
157 64 56 59 26 249 206 158 130 114 60 47 78 64 54 46 74 120 113 121 122 115 108 122 115 107 101 98 95 93 93 98 101 103 105 105 107 109 111 112 114 116 118 121 123 125 127 127 128
76 68 50 29 338 330 117 127 119 107 72 57 76 77 38 17 72 95 95 106 116 112 105 120 116 107 103 100 94 90 93 98 101 108 110 108 106 106 109 110 113 116 120 123 123 125 127 128 128
57 64 65 12 333 6 83 113 106 87 88 81 80 82 47 49 84 101 99 95 101 106 98 108 119 115 108 101 97 91 94 96 99 111 113 111 109 107 107 109 114 116 120 122 123 125 125 125 126
94 84 101 217 309 335 150 113 113 110 101 103 108 91 65 66 94 104 96 90 90 88 82 68 90 106 110 104 96 93 98 97 97 104 110 110 109 108 108 110 115 117 120 122 124 125 126 128 128
128 99 71 270 190 253 136 111 113 112 107 111 107 125 168 179 118 95 89 87 86 83 80 69 59 60 68 90 103 96 94 98 100 101 103 104 105 106 108 108 115 119 122 123 125 128 127 127 128
106 74 173 216 191 198 143 119 107 88 107 108 100 133 153 137 121 104 92 83 90 106 82 87 76 70 72 80 103 92 91 89 89 91 97 91 76 78 94 110 117 120 123 125 126 126 124 123 124
102 129 225 213 190 167 151 137 140 114 111 94 82 90 119 133 137 136 139 148 160 168 153 124 120 101 88 95 74 52 58 57 57 58 68 68 66 70 84 101 114 117 120 121 123 122 119 112 108
161 202 240 237 183 151 143 138 128 129 159 180 156 145 144 147 152 157 163 171 182 178 175 167 165 138 118 79 88 65 53 52 52 56 66 70 64 57 58 61 78 85 100 95 103 97 94 104 113
189 246 228 241 142 139 146 140 126 158 193 164 153 150 152 159 170 176 179 182 174 171 197 184 161 147 148 113 98 93 84 80 78 73 84 89 77 60 65 63 54 53 65 78 82 92 90 92 107
201 269 301 140 110 119 112 123 134 157 127 125 135 147 159 169 177 183 183 180 179 188 200 193 169 167 164 140 157 135 134 138 132 102 101 114 115 104 91 90 79 73 82 92 97 100 101 104 109
220 42 30 67 91 102 118 118 113 158 133 132 146 162 172 177 177 174 175 178 189 197 201 189 181 180 166 164 171 160 154 148 138 139 141 136 134 126 112 100 89 89 103 114 116 122 116 110 113
65 52 37 41 76 103 108 85 188 160 143 148 163 173 180 185 181 186 186 184 190 194 192 184 182 175 171 172 178 163 159 144 148 158 157 151 146 140 135 118 103 101 98 98 95 89 97 107 102
49 56 36 303 105 124 125 228 208 157 154 164 174 182 190 197 197 195 186 182 183 181 179 184 179 167 174 172 168 157 155 153 165 169 170 170 160 153 146 140 143 120 103 101 103 98 98 93 92
34 83 237 279 181 151 160 226 195 168 168 177 184 189 194 198 205 200 187 181 178 178 173 172 171 165 167 155 146 140 143 161 177 177 180 181 176 166 155 156 147 126 113 110 125 108 118 118 96
216 202 233 228 218 158 197 234 192 177 182 187 191 195 198 203 208 198 188 180 172 171 167 167 166 162 149 133 121 104 105 141 174 193 201 190 184 171 155 154 145 131 124 119 118 126 117 131 140
175 180 241 250 204 165 219 242 213 185 190 193 197 201 207 213 207 190 184 173 162 164 166 171 168 164 147 137 144 141 181 196 204 221 212 201 187 174 166 162 153 146 148 151 140 128 119 111 108
165 197 251 290 172 160 225 259 224 192 202 200 199 204 206 207 196 189 185 177 176 178 176 177 179 171 169 164 156 151 151 173 207 236 225 199 182 179 177 167 166 161 150 144 144 134 125 118 116
202 198 211 215 21 34 75 317 261 225 212 209 207 207 206 202 199 194 190 189 184 186 186 189 187 178 175 160 130 109 82 61 61 36 283 244 193 187 180 172 166 168 163 172 174 164 156 164 160
239 217 188 148 96 307 94 274 281 232 228 219 217 208 209 208 197 193 192 192 193 195 187 185 181 178 174 162 156 155 162 179 201 198 216 250 173 175 179 176 173 177 175 180 188 179 171 166 180
208 140 132 123 127 29 358 198 285 243 240 235 226 215 210 205 196 193 194 196 196 189 181 182 174 178 176 173 173 167 172 181 168 145 162 204 146 166 171 170 172 177 180 186 188 178 178 176 178
129 74 60 52 68 308 243 180 277 239 228 238 225 217 209 203 197 194 190 186 188 180 176 175 173 182 180 177 177 177 177 174 166 177 194 221 207 166 176 171 175 183 184 193 197 192 187 188 186
105 95 46 5 10 254 245 201 251 255 243 228 221 215 204 194 191 187 183 185 187 183 182 178 176 187 185 183 187 188 183 177 181 189 194 193 192 204 229 198 187 192 196 196 191 185 191 190 188
172 141 157 190 212 265 268 233 252 266 279 245 222 208 189 187 190 190 189 188 189 187 183 178 180 189 186 188 194 190 184 181 189 192 188 193 202 213 213 195 190 197 193 191 174 180 197 190 198
143 167 161 133 146 243 277 285 299 302 337 343 243 179 188 190 188 190 186 183 183 184 184 182 181 187 188 189 188 189 189 189 193 193 190 197 203 206 200 191 194 203 194 184 168 176 198 191 200
135 142 106 121 146 231 285 278 264 289 294 302 258 212 208 191 179 176 178 179 179 181 180 177 179 187 190 187 189 198 198 195 191 188 198 203 207 200 183 188 194 196 193 185 169 185 207 194 211
100 99 108 120 152 161 230 265 234 237 241 228 227 217 203 186 180 178 175 174 167 165 169 174 176 181 188 190 190 196 195 191 187 195 205 204 207 197 194 191 188 187 188 188 177 195 202 204 224
154 159 146 154 202 176 182 261 275 236 243 216 217 208 191 179 174 169 159 155 162 172 176 179 183 186 190 186 181 189 187 183 186 197 205 203 206 202 196 183 183 191 193 192 187 204 210 205 220